Tracking 31027 objects as of 19-Jul-2025
HD Live streaming from Space Station
objects crossing your sky now

BLOCK DM-SL R/B

Track BLOCK DM-SL R/B now!


NORAD ID: 29046
Int'l Code: 2006-010B
Perigee: 1,627.0 km
Apogee: 35,663.1 km
Inclination: 0.8 °
Period: 656.3 minutes
Semi major axis: 25016 km
RCS: 20.8191 m2 (large)
Launch date: April 12, 2006
Source: Sea Launch (SEAL)
Launch site: SEA LAUNCH (SEAL)

Note: This is a ROCKET BODY
Your satellite tracking list
ATLAS 2A CENTAUR R/B
Track 1 satellite(s)




NASA's NSSDC Master Catalog

Two Line Element Set (TLE):
1 29046U 06010B   25199.38534109 -.00000079  00000-0  00000-0 0  9994
2 29046   0.7858 320.4084 6802848 113.2595 346.9650  2.19419484154469
Source of the keplerian elements: AFSPC